Location: Dreisbach
(50.6167°N, 7.9324°E)
Time: 21:49:53
(UTC+00:00)

Daily predictions for brighter satellites

Satellite Brightness Start Highest point End
(mag) Time Altitude Azimuth Time Altitude Azimuth Time Altitude Azimuth
Cosmos 2016 Rocket 4.1 16:15:17 10° N 16:21:43 75° E 16:28:05 10° SSE
Cosmos 1459 Rocket 4.3 16:15:32 10° NNW 16:21:55 81° W 16:28:18 10° S
Meteor 1-28 Rocket 4.4 16:18:29 10° N 16:22:02 43° WNW 16:25:32 10° SW
Feng Yun 1-1 Rocket 4.3 16:20:37 10° SSE 16:26:13 68° ENE 16:31:43 10° NNW
Cosmos 1455 2.2 16:22:42 10° S 16:26:25 59° E 16:30:09 10° NNE
Okean 3 Rocket 4.4 16:23:34 10° NNW 16:27:56 57° W 16:32:14 10° S
Cosmos 1125 Rocket 4.0 16:25:37 10° NNW 16:30:50 69° WSW 16:35:59 10° SSE
TELKOM 3 2.8 16:31:33 10° W 16:33:46 73° S 16:35:50 10° E
CENTAUR R/B 3.7 16:27:56 10° W 16:34:02 38° NNW 16:41:06 10° NE
CORIOLIS 4.2 16:28:45 10° SSE 16:34:04 62° ENE 16:39:27 10° N
Cosmos 1437 2.7 16:31:42 10° N 16:34:43 50° ENE 16:37:43 10° SSE
Meteor 2-3 Rocket 3.9 16:29:24 10° N 16:35:09 55° ENE 16:40:48 10° SSE
Cosmos 1408 Rocket 3.6 16:31:30 10° N 16:35:56 89° WNW 16:40:22 10° S
H-2A R/B 2.8 16:32:11 10° SSE 16:35:59 56° ENE 16:39:47 10° N
Cosmos 1500 Rocket 3.7 16:35:37 10° N 16:39:56 50° ENE 16:44:11 10° SSE
ASTEX 1 3.4 16:35:28 10° N 16:40:31 83° E 16:45:32 10° S
Cosmos 1802 Rocket 4.4 16:35:58 10° NNW 16:42:17 70° W 16:48:29 10° S
Cosmos 1633 4.4 16:40:48 10° NE 16:42:38 13° ENE 16:43:41 12° E
Cosmos 1818 4.3 16:37:40 10° NW 16:43:02 59° WSW 16:48:21 10° SSE
SL-08 R/B 4.5 16:37:25 10° N 16:43:34 89° ENE 16:49:44 10° S
Timation 2 Rocket 4.4 16:38:28 10° NW 16:44:28 66° WSW 16:50:38 10° SSE
Cosmos 2263 Rocket 4.1 16:43:27 10° N 16:45:23 12° NNE 16:47:20 10° NE
Cosmos 2061 Rocket 4.3 16:39:33 10° NNW 16:45:45 74° W 16:51:56 10° S
ATLAS 3B R/B 3.8 16:41:52 10° W 16:47:53 34° NNW 16:53:55 10° NE
Cosmos 1943 Rocket 3.4 16:43:21 10° WSW 16:48:36 39° NW 16:53:56 10° NNE
COSMO-SKYMED 1 3.7 16:45:27 10° NE 16:48:56 23° E 16:52:25 10° SE
Cosmos 1607 4.1 16:47:43 10° NW 16:53:47 53° NE 16:59:54 10° ESE
YAOGAN 6 3.3 16:51:46 10° SE 16:54:51 29° ENE 16:57:55 10° N
CZ-4 R/B 2.0 16:56:01 10° SE 16:59:51 36° ENE 17:03:38 10° N
Meteor 2-10 Rocket 3.4 16:56:15 10° S 17:01:15 87° E 17:06:20 10° NNE
Sich 1 3.7 17:02:41 10° N 17:06:36 32° ENE 17:10:31 10° SE
Cosmos 1340 Rocket 3.4 17:03:48 10° SSW 17:07:46 60° WNW 17:11:48 10° N
ATLAS 5 CENTAUR R/B 2.4 17:05:53 10° NW 17:11:20 59° NE 17:17:36 10° ESE
Okean-O 2.7 17:09:36 10° SSE 17:14:02 81° WSW 17:18:31 10° NNW
Cosmos 1869 3.7 17:15:00 10° SSE 17:18:39 37° E 17:21:50 13° NNE
Envisat 2.9 17:15:56 10° SSE 17:21:02 87° ENE 17:26:10 10° NNW
Cosmos 1939 Rocket 3.8 17:20:29 25° E 17:21:36 28° ENE 17:25:11 10° N
YAOGAN 1 2.7 17:18:35 10° SE 17:22:44 48° ENE 17:26:56 10° N
Cosmos 2084 3.3 17:18:22 10° NW 17:22:45 86° NE 17:26:27 13° SE
COBE Rocket 3.8 17:17:49 10° NNE 17:22:45 82° ESE 17:27:31 10° S
Cosmos 1238 Rocket 3.3 17:18:20 10° NNW 17:23:26 75° W 17:27:32 10° S
USA 215 3.2 17:18:28 15° ESE 17:24:01 75° NNE 17:30:35 10° WNW
BREEZE-M DEB (TANK) 3.0 17:17:27 10° WSW 17:26:38 71° S 17:28:18 30° E
USA 229 DEB 4.2 17:23:45 10° S 17:29:39 37° ESE 17:32:54 24° ENE
USA 229 4.2 17:23:55 10° S 17:29:47 36° ESE 17:32:56 24° ENE
NOAA 11 4.4 17:25:04 10° SE 17:30:10 44° ENE 17:35:18 10° N
CZ-2D R/B 3.9 17:29:45 33° E 17:30:14 34° ENE 17:33:47 10° N
Cosmos 2233 Rocket 4.4 17:26:11 10° NNW 17:32:29 68° W 17:38:43 10° S
Cosmos 1842 Rocket 4.3 17:28:57 10° SSW 17:33:21 55° WNW 17:37:47 10° N
Cosmos 1825 4.5 17:31:02 10° NNW 17:34:15 27° W 17:37:28 10° SSW
NOSS 3-1 (A) 4.5 17:31:05 10° SSE 17:34:57 22° ESE 17:34:57 22° ESE
Cosmos 2219 3.3 17:29:42 10° NNW 17:35:21 79° WSW 17:40:58 10° SSE
SKYMED 2 3.5 17:33:00 10° NNE 17:37:21 65° ESE 17:41:40 10° S
Cosmos 1447 Rocket 4.5 17:31:09 10° S 17:37:23 87° E 17:43:44 10° N
NOSS 3-1 (C) 4.0 17:32:34 10° S 17:37:31 34° ESE 17:39:15 29° E
Cosmos 2221 2.9 17:34:08 10° SSW 17:38:24 66° WNW 17:42:45 10° N
CSL-04 Debris 4.1 17:33:09 10° SSE 17:38:38 73° ENE 17:44:08 10° NNW
Meteor 2-2 Rocket 4.2 17:34:10 10° S 17:40:03 78° E 17:45:51 10° NNE
NOSS 7 (D) 4.2 17:40:21 10° SSW 17:42:54 54° S 17:42:54 54° S
FengYun 1-2 T 4.3 17:38:55 10° SSE 17:44:28 79° WSW 17:50:01 10° NNW
GEOS 3 Rocket 4.2 17:41:56 17° NE 17:45:55 55° NW 17:51:02 10° WSW
USA 116 4.1 17:43:40 25° NE 17:45:58 53° E 17:50:38 10° S
Cosmos 2369 Rocket 4.2 17:42:29 10° W 17:46:48 22° NW 17:51:06 10° NNE
Geosat 4.5 17:42:41 10° NNE 17:47:39 60° NW 17:52:35 10° SW
Cosmos 1656 4.1 17:43:30 10° S 17:48:37 39° ESE 17:49:35 36° E
Cosmos 1464 Rocket 3.8 17:43:36 10° N 17:49:49 72° ENE 17:55:57 10° SSE
Cosmos 1867 3.5 17:44:42 10° SW 17:50:10 85° SE 17:53:12 28° NE
Cosmos 2344 3.8 17:43:07 10° SW 17:50:37 73° NW 17:57:45 16° NE
Cosmos 1891 Rocket 4.4 17:44:29 10° N 17:50:57 74° E 17:57:14 10° SSE
H-2A R/B 3.6 17:52:52 21° NE 17:52:52 21° NE 17:55:31 10° N
Cosmos 1805 Rocket 3.8 17:48:18 10° NNW 17:52:38 69° W 17:56:58 10° S
SeaSat 1 4.5 17:49:28 10° S 17:53:45 29° WSW 17:58:03 10° NW
Cosmos 1072 Rocket 4.4 17:50:54 10° N 17:57:03 86° E 18:03:13 10° S
IRS-1A Rocket 4.4 17:54:36 30° ESE 17:57:05 50° ENE 18:02:36 10° N
Cosmos 2227 Rocket 2.2 17:55:03 10° NNW 18:00:44 81° WSW 18:06:24 10° SSE
Cosmos 1862 3.1 17:57:03 10° N 18:00:56 69° ENE 18:00:56 69° ENE
Cosmos 2297 Rocket 2.3 17:55:54 10° NNW 18:01:35 75° WSW 18:07:12 10° SSE
CSL-04 Rocket 3.7 17:56:25 10° SSE 18:01:49 78° WSW 18:07:11 10° NNW
Ariane Rocket 3.0 18:02:08 38° SE 18:03:54 59° ENE 18:08:55 10° N
CZ-3B R/B 3.4 18:04:59 10° W 18:07:30 53° NNW 18:07:30 53° NNW
Cosmos 1356 Rocket 3.3 18:03:41 10° SSW 18:07:49 88° WNW 18:09:21 39° N
Meteor 2-20 Rocket 4.4 18:08:45 10° SSW 18:14:51 83° W 18:21:03 10° N
Cosmos 1633 3.0 18:14:16 10° NNW 18:17:54 60° W 18:17:56 60° W
Cosmos 2056 Rocket 4.2 18:14:02 10° NNW 18:17:40 36° NNE 18:17:40 36° NNE
Cosmos 773 Rocket 4.3 18:14:48 10° SW 18:19:56 66° WNW 18:23:08 23° NNE
Cosmos 1633 Rocket 3.2 18:20:43 10° NNW 18:25:06 73° W 18:26:17 47° SSW
COSMO-SKYMED 1 3.6 18:21:10 10° N 18:25:19 45° WNW 18:29:27 10° SW
Cosmos 2082 3.7 18:19:50 10° NNW 18:25:29 81° WSW 18:27:33 41° SSE
CENTAUR R/B 4.0 18:20:31 10° NW 18:26:46 31° N 18:29:14 26° NE
Cosmos 1538 Rocket 4.1 18:21:51 10° SSW 18:27:05 74° WNW 18:29:26 34° NNE
Genesis I 3.9 18:27:02 10° SW 18:30:19 53° W 18:30:19 53° W
Cosmos 2263 Rocket 3.4 18:26:15 10° NNW 18:29:43 28° NNE 18:29:43 28° NNE
Cosmos 1666 Rocket 4.3 18:28:36 10° NNW 18:32:53 50° W 18:37:06 10° S
Cosmos 724 4.1 18:28:00 10° NW 18:33:55 73° NE 18:34:06 72° ENE
CZ-4 R/B 3.6 18:31:22 10° SSW 18:34:56 27° W 18:38:29 10° NW
Cosmos 1932 4.4 18:30:21 10° NW 18:36:54 71° NE 18:37:29 67° E
ATLAS 3B R/B 3.9 18:34:58 10° NW 18:40:29 26° N 18:41:44 25° NNE
Cosmos 2034 Rocket 4.3 18:37:30 10° NNW 18:43:48 67° W 18:50:06 10° S
Cosmos 1697 Rocket 3.8 18:38:44 10° SSW 18:41:38 31° S 18:41:38 31° S
MOS 1 4.1 18:46:35 86° NNE 18:46:35 86° NNE 18:52:11 10° NNW
ATLAS 5 CENTAUR R/B 3.5 18:50:39 10° NW 18:56:00 39° WSW 18:59:13 24° S
Cosmos 1939 Rocket 4.5 18:56:24 34° W 18:56:26 34° W 19:00:16 10° NNW
Tsikada Rocket 4.1 18:57:44 10° S 19:06:39 40° N 19:10:34 10° N
USA 215 3.9 19:05:49 42° S 19:07:18 48° SW 19:13:38 10° WNW
Cosmos 1634 Rocket 4.4 19:02:52 10° N 19:07:27 52° N 19:07:27 52° N
USA 229 DEB 3.8 19:13:39 10° WSW 19:20:16 66° NW 19:20:23 66° NW
USA 229 3.8 19:13:47 10° WSW 19:20:22 66° NW 19:20:25 66° NW
NOSS 3-1 (C) 4.0 19:22:15 10° WSW 19:26:41 51° W 19:26:41 51° W
H-2A R/B 3.9 19:33:30 25° NNW 19:33:30 25° NNW 19:35:42 10° NNW
CENTAUR R/B 4.1 20:11:58 10° NW 20:16:24 35° NNW 20:16:24 35° NNW
